CW0172 Weather Reports


Display with metric or nautical units.
time (UTC)temp
F
wind
direction
speed
MPH
gust
MPH
rain 1hr
in
rain 24hr
in
rain mn
in
humidity
%
barometer
mb
20210805133016 68 44 0.0 1.0 0.00 0.00 0.00 1 1027.9
20210805131510 67 41 1.0 6.0 0.00 0.00 0.00 1 1027.9
20210805130004 68 29 0.0 0.0 0.00 0.00 0.00 1 1027.8
20210805124817 67 26 0.0 3.0 0.00 0.00 0.00 1 1027.7
20210805123133 66 26 0.0 3.0 0.00 0.00 0.00 1 1027.6
20210805121828 65 30 0.0 1.0 0.00 0.00 0.00 1 1027.6
20210805120216 64 30 0.0 2.0 0.00 0.00 0.00 1 1027.5
20210805114627 63 38 0.0 0.0 0.00 0.00 0.00 1 1027.5
20210805113130 63 38 0.0 0.0 0.00 0.00 0.00 1 1027.5
20210805111544 63 38 0.0 0.0 0.00 0.00 0.00 1 1027.5
20210805110106 62 38 0.0 0.0 0.00 0.00 0.00 1 1027.5
20210805104544 62 38 0.0 0.0 0.00 0.00 0.00 1 1027.3
20210805103023 61 38 0.0 0.0 0.00 0.00 0.00 1 1027.3
20210805101528 61 38 0.0 0.0 0.00 0.00 0.00 1 1027.3
20210805100037 61 38 0.0 0.0 0.00 0.00 0.00 1 1027.4
20210805094521 61 38 0.0 0.0 0.00 0.00 0.00 1 1027.2
20210805093013 61 38 0.0 0.0 0.00 0.00 0.00 1 1027.1
20210805091635 61 38 0.0 0.0 0.00 0.00 0.00 1 1027.4
20210805090250 61 38 0.0 0.0 0.00 0.00 0.00 1 1027.2
20210805084632 61 38 0.0 0.0 0.00 0.00 0.00 1 1027.2
20210805083125 62 38 0.0 0.0 0.00 0.00 0.00 1 1027.3
20210805081833 62 38 0.0 0.0 0.00 0.00 0.00 1 1027.1
20210805080104 62 38 0.0 0.0 0.00 0.00 0.00 1 1027.2
20210805074551 62 38 0.0 0.0 0.00 0.00 0.00 1 1027.3
20210805073101 62 38 0.0 0.0 0.00 0.00 0.00 1 1027.5
20210805071532 62 38 0.0 0.0 0.00 0.00 0.00 1 1027.6
20210805070034 62 38 0.0 0.0 0.00 0.00 0.00 1 1027.7
20210805064533 62 38 0.0 0.0 0.00 0.00 0.00 1 1027.8
20210805063044 62 38 0.0 0.0 0.00 0.00 0.00 1 1027.9
20210805061527 62 38 0.0 0.0 0.00 0.00 0.00 1 1028.0
20210805054730 62 38 0.0 0.0 0.00 0.00 0.00 1 1028.1
20210805053128 62 38 0.0 0.0 0.00 0.00 0.00 1 1028.1
20210805051603 63 38 0.0 0.0 0.00 0.00 0.00 1 1028.2
20210805050132 63 38 0.0 0.0 0.00 0.00 0.00 1 1028.1
20210805044643 64 38 0.0 0.0 0.00 0.00 0.00 1 1028.1
20210805043149 64 38 0.0 0.0 0.00 0.00 0.00 1 1028.2
20210805041604 64 38 0.0 0.0 0.00 0.00 0.00 1 1028.4
20210805040046 64 38 0.0 0.0 0.00 0.00 0.00 1 1028.3
20210805034540 65 38 0.0 0.0 0.00 0.00 0.00 1 1028.3
20210805033019 65 38 0.0 0.0 0.00 0.00 0.00 1 1028.3
20210805031520 66 38 0.0 0.0 0.00 0.00 0.00 1 1028.4
20210805030040 66 38 0.0 0.0 0.00 0.00 0.00 1 1028.5
20210805024518 67 38 0.0 0.0 0.00 0.00 0.00 1 1028.6
20210805021510 67 38 0.0 0.0 0.00 0.00 0.00 1 1028.9
20210805020009 67 38 0.0 0.0 0.00 0.00 0.00 1 1028.7
20210805014747 67 38 0.0 0.0 0.00 0.00 0.00 1 1028.7
20210805013141 67 38 0.0 0.0 0.00 0.00 0.00 1 1028.4
20210805011627 67 38 0.0 0.0 0.00 0.00 0.00 10 1028.3
20210805010338 68 38 0.0 0.0 0.00 0.00 0.00 24 1028.1
20210805004604 68 38 0.0 0.0 0.00 0.00 0.00 34 1028.2
20210805003057 69 38 0.0 0.0 0.00 0.00 0.00 44 1028.0
20210805001551 69 38 0.0 0.0 0.00 0.00 0.00 49 1028.0
20210805000130 69 38 0.0 0.0 0.00 0.00 0.00 51 1027.9
20210804234535 70 38 0.0 0.0 0.00 0.00 0.00 52 1028.1
20210804233045 70 38 0.0 0.0 0.00 0.00 0.00 53 1028.0
20210804231522 70 38 0.0 0.0 0.00 0.00 0.00 53 1028.0
20210804230036 71 38 0.0 0.0 0.00 0.00 0.00 54 1027.9
20210804224512 71 42 0.0 0.0 0.00 0.00 0.00 55 1027.8
20210804223011 71 39 0.0 0.0 0.00 0.00 0.00 54 1027.9
20210804221535 72 35 0.0 4.0 0.00 0.00 0.00 54 1027.7
20210804220037 72 44 0.0 4.0 0.00 0.00 0.00 53 1027.7
20210804214507 72 46 0.0 0.0 0.00 0.00 0.00 52 1027.6
20210804213001 73 84 0.0 5.0 0.00 0.00 0.00 53 1027.6
20210804211812 73 42 0.0 0.0 0.00 0.00 0.00 53 1027.8
20210804210128 73 63 0.0 0.0 0.00 0.00 0.00 52 1027.8
20210804204642 74 38 1.0 6.0 0.00 0.00 0.00 52 1027.7
20210804203207 75 215 0.0 4.0 0.00 0.00 0.00 52 1027.7
20210804201649 74 350 0.0 3.0 0.00 0.00 0.00 49 1027.8
20210804200058 73 31 0.0 5.0 0.00 0.00 0.00 51 1027.9
20210804194602 73 45 0.0 4.0 0.00 0.00 0.00 52 1027.9
20210804193057 73 40 0.0 5.0 0.00 0.00 0.00 50 1028.0
20210804191545 74 28 0.0 5.0 0.00 0.00 0.00 52 1028.3
20210804190052 74 38 0.0 1.0 0.00 0.00 0.00 51 1028.5
20210804184610 73 42 0.0 0.0 0.00 0.00 0.00 51 1028.5
20210804183010 73 26 0.0 4.0 0.00 0.00 0.00 51 1029.0
20210804181526 72 14 0.0 4.0 0.00 0.00 0.00 52 1029.0
20210804180014 72 34 0.0 4.0 0.00 0.00 0.00 51 1029.0
20210804174609 72 36 0.0 0.0 0.00 0.00 0.00 49 1029.0
20210804173103 72 37 1.0 5.0 0.00 0.00 0.00 51 1029.1
20210804171622 72 27 0.0 0.0 0.00 0.00 0.00 48 1029.1
20210804170127 72 42 0.0 0.0 0.00 0.00 0.00 45 1029.0
20210804164610 73 82 0.0 2.0 0.00 0.00 0.00 49 1029.0
20210804163110 72 218 0.0 3.0 0.00 0.00 0.00 47 1028.9
20210804161600 72 42 0.0 6.0 0.00 0.00 0.00 48 1028.9
20210804160111 72 23 0.0 0.0 0.00 0.00 0.00 48 1028.8
20210804154539 72 22 0.0 0.0 0.00 0.00 0.00 44 1028.9
20210804153033 71 15 0.0 0.0 0.00 0.00 0.00 41 1029.0
20210804151514 71 31 0.0 0.0 0.00 0.00 0.00 38 1029.0
20210804150014 70 31 0.0 0.0 0.00 0.00 0.00 32 1029.2
20210804144505 70 31 0.0 0.0 0.00 0.00 0.00 32 1029.0
20210804143152 69 31 0.0 0.0 0.00 0.00 0.00 28 1029.3
20210804141713 69 31 0.0 0.0 0.00 0.00 0.00 26 1029.1
20210804140115 68 31 0.0 0.0 0.00 0.00 0.00 21 1029.0
20210804134800 68 31 0.0 0.0 0.00 0.00 0.00 23 1028.9